ISS (ZARYA) 1 25544U 98067A 26207.08830238 .00010158 00000+0 19105-3 0 9992 2 25544 51.6316 107.5836 0006934 338.3897 21.6798 15.49174705577787 POISK 1 36086U 09060A 26207.08830238 .00010158 00000+0 19105-3 0 9990 2 36086 51.6316 107.5836 0006934 338.3897 21.6798 15.49174705576633 CSS (TIANHE) 1 48274U 21035A 26205.70067244 .00011455 00000+0 15064-3 0 9995 2 48274 41.4690 94.2105 0001495 308.5106 51.5598 15.58352000299028 ISS (NAUKA) 1 49044U 21066A 26207.08830238 .00010158 00000+0 19105-3 0 9998 2 49044 51.6316 107.5836 0006934 338.3897 21.6798 15.49174705576675 FREGAT DEB 1 49271U 11037PF 26207.14567241 .00016967 00000+0 28178-1 0 9997 2 49271 51.6198 244.7287 0903178 7.4407 353.8878 12.43082959229894 CSS (WENTIAN) 1 53239U 22085A 26205.70067244 .00011455 00000+0 15064-3 0 9998 2 53239 41.4690 94.2105 0001495 308.5106 51.5598 15.58352000288236 CSS (MENGTIAN) 1 54216U 22143A 26205.70067244 .00011455 00000+0 15064-3 0 9999 2 54216 41.4690 94.2105 0001495 308.5106 51.5598 15.58352000298367 HRC MONOBLOCK CAMERA 1 66052U 98067XR 26207.23650338 .00111838 00000+0 57743-3 0 9996 2 66052 51.6201 77.6862 0001107 221.0498 139.0421 15.80275498 44161 SZ-21 MODULE 1 66515U 25246C 26207.00932405 .00054802 00000+0 28795-3 0 9994 2 66515 41.4727 64.9327 0009633 286.2637 73.7148 15.79772814 39874 SOYUZ-MS 28 1 66664U 25275A 26207.08830238 .00010158 00000+0 19105-3 0 9991 2 66664 51.6316 107.5836 0006934 338.3897 21.6798 15.49174705577561 DUPLEX 1 66906U 98067XS 26206.96588808 .00044798 00000+0 44383-3 0 9991 2 66906 51.6265 93.2374 0002056 357.6302 2.4684 15.65356246 36726 KNACKSAT-2 1 67683U 98067XZ 26206.68153171 .00057388 00000+0 61132-3 0 9994 2 67683 51.6274 100.3605 0007471 1.6961 358.4058 15.63384599 26299 CORAL 1 67684U 98067YA 26206.05328409 .00936467 45171-3 15203-2 0 9997 2 67684 51.6118 89.9766 0006682 256.1646 103.8621 16.02791757 26376 GXIBA-1 1 67685U 98067YB 26207.08226894 .00069170 00000+0 66821-3 0 9996 2 67685 51.6259 97.0216 0007765 358.7916 1.3060 15.65773425 26374 UITMSAT-2 1 67686U 98067YC 26206.41844486 .00104992 00000+0 81916-3 0 9990 2 67686 51.6246 97.8258 0003156 335.9243 24.1607 15.70852635 26305 LEOPARD 1 67687U 98067YD 26207.25384239 .00082314 00000+0 81395-3 0 9993 2 67687 51.6283 96.6921 0004424 332.9613 27.1151 15.65140900 26315 HMU-SAT2 1 67688U 98067YE 26207.09397435 .00090428 00000+0 78190-3 0 9992 2 67688 51.6264 95.6075 0003626 335.1870 24.8952 15.68430547 26312 CREW DRAGON 12 1 67796U 26031A 26207.08830238 .00010158 00000+0 19105-3 0 9999 2 67796 51.6316 107.5836 0006934 338.3897 21.6798 15.49174705577489 PROGRESS-MS 33 1 68319U 26058A 26207.08830238 .00010158 00000+0 19105-3 0 9990 2 68319 51.6316 107.5836 0006934 338.3897 21.6798 15.49174705576794 CYGNUS NG-24 1 68689U 26079A 26207.08830238 .00010158 00000+0 19105-3 0 9993 2 68689 51.6316 107.5836 0006934 338.3897 21.6798 15.49174705577605 PROGRESS-MS 34 1 68837U 26093A 26207.08830238 .00010158 00000+0 19105-3 0 9994 2 68837 51.6316 107.5836 0006934 338.3897 21.6798 15.49174705577644 TIANZHOU-10 1 69049U 26102A 26205.70067244 .00011455 00000+0 15064-3 0 9998 2 69049 41.4690 94.2105 0001495 308.5106 51.5598 15.58352000298716 SHENZHOU-23 (SZ-23) 1 69180U 26113A 26205.70067244 .00011455 00000+0 15064-3 0 9996 2 69180 41.4690 94.2105 0001495 308.5106 51.5598 15.58352000298183